Location: *
(55.5817°S, 142.4781°W)
Time: 06:12:23
(UTC+00:00)

Cosmos 1023 Rocket - Pass Details

Date: 29 April 2025
Orbit: 732 x 767 km, 74.1° (Epoch: 23 May)

Event Time Altitude Azimuth Distance (km) Brightness Sun altitude
Exits shadow 14:24:43 24° 216° (SW) 1,562 5.8 -20.9°
Maximum altitude 14:27:54 66° 292° (WNW) 838 4.4 -20.4°
Drops below altitude 10° 14:33:06 10° 13° (NNE) 2,308 7.1 -19.7°
Sets 14:35:28 0° 16° (NNE) 3,231 7.9 -19.4°
